Location: Arrakis Observatory
(44.1122°N, 95.7153°W)
Time: 18:33:44
(UTC-05:00)

Amateur Radio Satellites - All Passes

Search period start: 01 September 2014 18:03
Search period end: 02 September 2014 18:03
Location: Arrakis Observatory, 44.1122°N, 95.7153°W

Satellite Date Start Highest point End Downlink Frequencies (MHz)
Time Altitude Azimuth
RS-15 01 Sep 18:10:17 18:20:53 54° 247° (WSW) 18:31:56 29.354 - 29.394 USB, Beacon 29.352 USB
JAS-2 01 Sep 18:21:52 18:27:53 75° 74° (ENE) 18:33:19 435.800 - 435.900 CW/SSB, 435.910 FM
AO-7 01 Sep 18:28:58 18:35:10 23° 268° (W) 18:41:24 29.400 - 29.500 MHz
PCSat 01 Sep 18:31:32 18:36:27 35° 312° (NW) 18:41:25 145.825 MHz
SO-67 01 Sep 18:44:00 18:46:13 16° 67° (ENE) 18:48:25 435.3500 MHz FM
Hamsat 01 Sep 19:15:00 19:18:48 30° 265° (W) 19:22:39 145.90 MHz
OPAL 01 Sep 19:19:29 19:23:47 27° 299° (WNW) 19:28:04 ?
STRAND 1 01 Sep 19:27:35 19:31:53 27° 95° (E) 19:36:10 ?
Sapphire 01 Sep 19:48:49 19:51:34 14° 327° (NNW) 19:54:20 437.095 MHz 1200 baud AX-25 AFSK
HO-68 01 Sep 19:51:50 19:57:05 23° 54° (NE) 20:02:19 435.675 MHz FM
JAS-2 01 Sep 20:10:04 20:13:27 16° 269° (W) 20:16:42 435.800 - 435.900 CW/SSB, 435.910 FM
SO-67 01 Sep 20:15:52 20:19:01 32° 263° (W) 20:22:11 435.3500 MHz FM
STRAND 1 01 Sep 21:06:27 21:11:11 40° 292° (WNW) 21:15:55 ?
UKube-1 01 Sep 21:11:09 21:14:53 29° 67° (ENE) 21:18:39 145.840 MHz, 145.915 MHz
Oscar 11 01 Sep 21:15:33 21:18:46 21° 65° (ENE) 21:22:01 145.825 FM, Beacon 2401.500 USB
HO-68 01 Sep 21:36:51 21:44:00 82° 254° (WSW) 21:51:12 435.675 MHz FM
Saudisat 1A 01 Sep 21:45:11 21:47:38 15° 110° (ESE) 21:50:06 436.775 MHz
FUNcube-1 01 Sep 21:47:42 21:50:31 18° 63° (ENE) 21:53:22 145.950 - 145.970 MHz USB
MaSat-1 01 Sep 22:06:28 22:10:41 32° 52° (NE) 22:14:23 437.345 MHz
KITSAT 1 01 Sep 22:28:05 22:33:52 22° 103° (ESE) 22:39:39 435.175 FM
UKube-1 01 Sep 22:47:20 22:51:03 28° 264° (W) 22:54:48 145.840 MHz, 145.915 MHz
Oscar 11 01 Sep 22:50:36 22:54:42 40° 262° (W) 22:58:50 145.825 FM, Beacon 2401.500 USB
AO-40 01 Sep 23:02:30 04:01:30 35° 153° (SSE) 05:39:10 Beacon 2401.320
Saudisat 1A 01 Sep 23:22:19 23:26:42 66° 307° (NW) 23:31:07 436.775 MHz
FUNcube-1 01 Sep 23:22:31 23:26:33 46° 261° (W) 23:30:42 145.950 - 145.970 MHz USB
HO-68 01 Sep 23:29:01 23:32:45 15° 273° (W) 23:36:30 435.675 MHz FM
MaSat-1 01 Sep 23:43:46 23:47:32 27° 255° (WSW) 23:50:52 437.345 MHz
PCSat 01 Sep 23:52:34 23:54:29 12° 30° (NNE) 23:56:24 145.825 MHz
KITSAT 1 02 Sep 00:20:11 00:28:18 85° 303° (WNW) 00:36:27 435.175 FM
Saudisat 1A 02 Sep 01:04:58 01:07:08 13° 328° (NNW) 01:09:19 436.775 MHz
Sapphire 02 Sep 01:05:07 01:09:47 28° 45° (NE) 01:14:26 437.095 MHz 1200 baud AX-25 AFSK
PCSat 02 Sep 01:34:05 01:39:20 46° 52° (NE) 01:44:32 145.825 MHz
Oscar 19 02 Sep 01:41:00 01:43:29 13° 88° (E) 01:45:57 437.125 CW, 437.150 USB
Oscar 10/S400 02 Sep 02:10:59 03:10:10 46° 214° (SW) 09:19:40 145.825 - 145.975 CW/USB, Beacon 145.810 USB
Oscar 16 02 Sep 02:14:45 02:19:15 29° 95° (E) 02:23:43 437.025 USB, Beacon 2401.1428
KITSAT 1 02 Sep 02:18:14 02:24:54 27° 326° (NNW) 02:31:36 435.175 FM
ITAMSAT 1 02 Sep 02:18:52 02:21:12 13° 89° (E) 02:23:33 435.822 SSB
Uribyol 2 02 Sep 02:27:23 02:30:44 17° 91° (E) 02:34:04 436.500 FM
JAS-1B 02 Sep 02:33:11 02:37:41 19° 87° (E) 02:41:49 435.800 - 435.900 CW/SSB
AO-27 02 Sep 02:47:05 02:51:18 25° 94° (E) 02:55:31 436.795 MHz FM
Sapphire 02 Sep 02:48:13 02:53:30 53° 245° (WSW) 02:58:44 437.095 MHz 1200 baud AX-25 AFSK
PCSat 02 Sep 03:17:56 03:22:31 28° 251° (WSW) 03:27:05 145.825 MHz
Oscar 19 02 Sep 03:18:13 03:23:26 80° 286° (WNW) 03:28:37 437.125 CW, 437.150 USB
OPAL 02 Sep 03:20:43 03:23:27 15° 55° (NE) 03:26:12 ?
AO-Echo 02 Sep 03:26:28 03:31:08 62° 101° (ESE) 03:35:48 ?
Gurwin Techsat 1B 02 Sep 03:28:39 03:33:11 28° 94° (E) 03:37:41 435.225 FM
Oscar 16 02 Sep 03:53:53 03:58:40 38° 292° (WNW) 04:03:26 437.025 USB, Beacon 2401.1428
ITAMSAT 1 02 Sep 03:56:07 04:01:20 82° 286° (WNW) 04:06:31 435.822 SSB
SO-50 02 Sep 04:02:15 04:06:43 78° 123° (ESE) 04:11:19 436.795 FM
Uribyol 2 02 Sep 04:05:30 04:10:39 64° 288° (WNW) 04:15:47 436.500 FM
TMSAT-1 02 Sep 04:18:07 04:23:21 57° 101° (E) 04:28:33 436.925 FM
KITSAT 1 02 Sep 04:19:21 04:23:39 15° 356° (N) 04:27:57 435.175 FM
Uosat F 02 Sep 04:21:55 04:23:09 11° 88° (E) 04:24:22 435.120 FM
JAS-1B 02 Sep 04:22:31 04:29:13 65° 290° (WNW) 04:35:01 435.800 - 435.900 CW/SSB
AO-27 02 Sep 04:26:05 04:31:00 44° 291° (WNW) 04:35:54 436.795 MHz FM
AO-7 02 Sep 04:34:07 04:40:30 24° 92° (E) 04:46:50 29.400 - 29.500 MHz
OPAL 02 Sep 04:56:31 05:01:36 87° 253° (WSW) 05:06:47 ?
Oscar 19 02 Sep 04:59:58 05:01:55 12° 304° (NW) 05:03:53 437.125 CW, 437.150 USB
AO-Echo 02 Sep 05:06:34 05:09:26 16° 299° (WNW) 05:12:19 ?
Gurwin Techsat 1B 02 Sep 05:08:18 05:13:15 41° 292° (WNW) 05:18:11 435.225 FM
ITAMSAT 1 02 Sep 05:37:56 05:40:00 12° 304° (NW) 05:42:03 435.822 SSB
SO-50 02 Sep 05:44:37 05:47:51 19° 323° (NW) 05:51:08 436.795 FM
UOSAT-12 02 Sep 05:47:41 05:52:17 73° 122° (ESE) 05:57:00 437.025 FM, 437.400 FM
Uosat F 02 Sep 05:57:35 06:02:37 90° 67° (ENE) 06:07:38 435.120 FM
TMSAT-1 02 Sep 05:58:57 06:02:51 21° 298° (WNW) 06:06:46 436.925 FM
Saudisat 1A 02 Sep 06:08:42 06:12:15 23° 41° (NE) 06:15:47 436.775 MHz
JAS-1B 02 Sep 06:15:49 06:18:15 12° 314° (NW) 06:20:34 435.800 - 435.900 CW/SSB
KITSAT 1 02 Sep 06:16:47 06:22:45 22° 26° (NNE) 06:28:42 435.175 FM
AO-7 02 Sep 06:25:47 06:34:05 78° 291° (WNW) 06:42:20 29.400 - 29.500 MHz
RS-15 02 Sep 06:26:54 06:34:39 23° 101° (E) 06:42:16 29.354 - 29.394 USB, Beacon 29.352 USB
OPAL 02 Sep 06:39:56 06:41:13 11° 271° (W) 06:42:31 ?
STRAND 1 02 Sep 06:44:52 06:49:42 45° 69° (ENE) 06:54:33 ?
Hamsat 02 Sep 06:58:45 07:02:55 43° 98° (E) 07:07:00 145.90 MHz
JAS-2 02 Sep 07:13:24 07:18:36 55° 101° (E) 07:24:13 435.800 - 435.900 CW/SSB, 435.910 FM
UOSAT-12 02 Sep 07:29:27 07:32:57 20° 322° (NW) 07:36:30 437.025 FM, 437.400 FM
Uosat F 02 Sep 07:38:26 07:40:41 13° 303° (WNW) 07:42:55 435.120 FM
SO-67 02 Sep 07:38:52 07:40:56 15° 92° (E) 07:42:58 435.3500 MHz FM
Saudisat 1A 02 Sep 07:47:49 07:52:08 53° 240° (WSW) 07:56:24 436.775 MHz
KITSAT 1 02 Sep 08:11:56 08:19:58 62° 52° (NE) 08:27:55 435.175 FM
AO-7 02 Sep 08:20:03 08:25:37 21° 313° (NW) 08:31:12 29.400 - 29.500 MHz
STRAND 1 02 Sep 08:25:04 08:29:05 23° 266° (W) 08:33:08 ?
RS-15 02 Sep 08:34:17 08:45:22 87° 122° (ESE) 08:56:20 29.354 - 29.394 USB, Beacon 29.352 USB
Hamsat 02 Sep 08:35:27 08:38:34 20° 295° (WNW) 08:41:39 145.90 MHz
JAS-2 02 Sep 08:59:32 09:03:25 21° 297° (WNW) 09:07:29 435.800 - 435.900 CW/SSB, 435.910 FM
HO-68 02 Sep 09:04:32 09:09:01 17° 89° (E) 09:13:29 435.675 MHz FM
SO-67 02 Sep 09:10:57 09:14:06 33° 288° (WNW) 09:17:14 435.3500 MHz FM
KITSAT 1 02 Sep 10:07:56 10:14:55 34° 252° (WSW) 10:21:52 435.175 FM
ISS 02 Sep 10:21:52 10:25:05 47° 142° (SE) 10:28:18 145.800 FM
UKube-1 02 Sep 10:33:25 10:37:33 42° 99° (E) 10:41:40 145.840 MHz, 145.915 MHz
Oscar 11 02 Sep 10:36:43 10:40:39 32° 96° (E) 10:44:32 145.825 FM, Beacon 2401.500 USB
RS-15 02 Sep 10:49:16 10:59:07 36° 330° (NNW) 11:09:02 29.354 - 29.394 USB, Beacon 29.352 USB
HO-68 02 Sep 10:50:25 10:57:37 89° 287° (WNW) 11:04:48 435.675 MHz FM
SO-50 02 Sep 10:52:37 10:56:07 20° 37° (NE) 10:59:38 436.795 FM
FUNcube-1 02 Sep 11:09:58 11:14:00 30° 96° (E) 11:18:04 145.950 - 145.970 MHz USB
MaSat-1 02 Sep 11:58:15 12:00:00 12° 98° (E) 12:01:47 437.345 MHz
ISS 02 Sep 11:58:49 12:01:54 34° 341° (NNW) 12:04:59 145.800 FM
UKube-1 02 Sep 12:10:18 12:13:29 20° 296° (WNW) 12:16:39 145.840 MHz, 145.915 MHz
Oscar 11 02 Sep 12:13:05 12:16:43 26° 293° (WNW) 12:20:19 145.825 FM, Beacon 2401.500 USB
SO-50 02 Sep 12:32:26 12:37:14 80° 237° (WSW) 12:42:05 436.795 FM
UOSAT-12 02 Sep 12:36:42 12:39:59 18° 36° (NE) 12:43:14 437.025 FM, 437.400 FM
HO-68 02 Sep 12:39:31 12:44:24 20° 307° (NW) 12:49:18 435.675 MHz FM
FUNcube-1 02 Sep 12:46:24 12:50:20 29° 292° (WNW) 12:54:18 145.950 - 145.970 MHz USB
Oscar 19 02 Sep 12:58:43 13:02:48 24° 63° (ENE) 13:06:54 437.125 CW, 437.150 USB
AO-Echo 02 Sep 13:05:27 13:07:38 13° 59° (ENE) 13:09:47 ?
RS-15 02 Sep 13:07:10 13:15:47 25° 4° (N) 13:24:31 29.354 - 29.394 USB, Beacon 29.352 USB
JAS-1B 02 Sep 13:16:59 13:24:49 31° 60° (ENE) 13:31:51 435.800 - 435.900 CW/SSB
MaSat-1 02 Sep 13:31:10 13:36:09 87° 116° (ESE) 13:41:21 437.345 MHz
Oscar 16 02 Sep 13:33:02 13:37:59 48° 70° (ENE) 13:42:58 437.025 USB, Beacon 2401.1428
ISS 02 Sep 13:36:38 13:39:17 22° 1° (N) 13:41:57 145.800 FM
ITAMSAT 1 02 Sep 13:37:40 13:41:46 25° 63° (ENE) 13:45:54 435.822 SSB
Uribyol 2 02 Sep 13:46:25 13:50:53 31° 65° (ENE) 13:55:22 436.500 FM
AO-7 02 Sep 13:50:39 13:51:33 10° 36° (NE) 13:52:27 29.400 - 29.500 MHz
TMSAT-1 02 Sep 14:03:31 14:06:30 15° 58° (ENE) 14:09:29 436.925 FM
AO-27 02 Sep 14:06:33 14:11:25 44° 69° (ENE) 14:16:19 436.795 MHz FM
UOSAT-12 02 Sep 14:16:02 14:20:48 88° 236° (SW) 14:25:28 437.025 FM, 437.400 FM
SO-50 02 Sep 14:16:33 14:17:02 10° 254° (WSW) 14:17:31 436.795 FM
Oscar 19 02 Sep 14:36:52 14:41:50 48° 261° (W) 14:46:52 437.125 CW, 437.150 USB
AO-Echo 02 Sep 14:40:45 14:45:45 86° 256° (WSW) 14:50:38 ?
Gurwin Techsat 1B 02 Sep 14:51:04 14:56:10 50° 70° (ENE) 15:01:18 435.225 FM
JAS-1B 02 Sep 15:05:01 15:14:45 75° 257° (WSW) 15:23:20 435.800 - 435.900 CW/SSB
MaSat-1 02 Sep 15:10:25 15:13:51 18° 316° (NW) 15:17:20 437.345 MHz
ISS 02 Sep 15:13:31 15:16:39 37° 21° (NNE) 15:19:47 145.800 FM
Oscar 16 02 Sep 15:13:35 15:17:35 22° 267° (W) 15:21:37 437.025 USB, Beacon 2401.1428
ITAMSAT 1 02 Sep 15:16:03 15:21:00 46° 261° (W) 15:25:59 435.822 SSB
RS-15 02 Sep 15:21:34 15:31:58 44° 37° (NE) 15:42:39 29.354 - 29.394 USB, Beacon 29.352 USB
Uribyol 2 02 Sep 15:25:33 15:30:16 36° 263° (W) 15:35:01 436.500 FM
AO-7 02 Sep 15:34:30 15:42:02 40° 59° (ENE) 15:49:33 29.400 - 29.500 MHz
Uosat F 02 Sep 15:35:28 15:39:02 20° 61° (ENE) 15:42:37 435.120 FM
TMSAT-1 02 Sep 15:40:26 15:45:43 82° 256° (WSW) 15:51:03 436.925 FM
AO-27 02 Sep 15:46:55 15:51:07 25° 266° (W) 15:55:20 436.795 MHz FM
Sapphire 02 Sep 15:50:35 15:53:44 16° 104° (ESE) 15:56:54 437.095 MHz 1200 baud AX-25 AFSK
UOSAT-12 02 Sep 15:58:51 16:00:11 11° 253° (WSW) 16:01:30 437.025 FM, 437.400 FM
PCSat 02 Sep 16:17:55 16:22:33 30° 110° (ESE) 16:27:12 145.825 MHz
Gurwin Techsat 1B 02 Sep 16:32:19 16:36:25 22° 268° (W) 16:40:32 435.225 FM
ISS 02 Sep 16:50:16 16:53:25 40° 219° (SW) 16:56:34 145.800 FM
JAS-1B 02 Sep 17:00:31 17:06:14 17° 273° (W) 17:11:40 435.800 - 435.900 CW/SSB
OPAL 02 Sep 17:05:41 17:09:42 22° 95° (E) 17:13:40 ?
Uosat F 02 Sep 17:12:30 17:17:25 56° 259° (W) 17:22:21 435.120 FM
TMSAT-1 02 Sep 17:25:38 17:26:27 10° 274° (W) 17:27:17 436.925 FM
AO-7 02 Sep 17:26:31 17:34:36 53° 258° (WSW) 17:42:42 29.400 - 29.500 MHz
JAS-2 02 Sep 17:28:12 17:33:04 28° 65° (ENE) 17:37:36 435.800 - 435.900 CW/SSB, 435.910 FM
Sapphire 02 Sep 17:31:04 17:36:28 78° 302° (WNW) 17:41:56 437.095 MHz 1200 baud AX-25 AFSK
RS-15 02 Sep 17:34:06 17:45:03 69° 243° (WSW) 17:56:27 29.354 - 29.394 USB, Beacon 29.352 USB
Hamsat 02 Sep 17:53:26 17:57:25 37° 70° (ENE) 18:01:27 145.90 MHz
